Fort Myers, FL

11:57 PM EST on February 24, 2017 (GMT -0500)
Southwest Florida International

Weather History for KRSW - August, 2013

Change the Weather History Date:

Wednesday, August 14, 2013

  Actual Average Record
Temperature  
Mean Temperature 82 °F -  
Max Temperature 91 °F 90 °F 98 °F (1997)
Min Temperature 75 °F 74 °F 70 °F (1947)
Cooling Degree Days 17    
Growing Degree Days 32 (Base 50)    
Moisture  
Dew Point 73 °F    
Average Humidity 77    
Maximum Humidity 100    
Minimum Humidity 52    
Precipitation  
Precipitation 0.03 in - - ()
Sea Level Pressure  
Sea Level Pressure 29.98 in    
Wind  
Wind Speed 5 mph (South)    
Max Wind Speed 12 mph    
Max Gust Speed -    
Visibility 10 miles    
Events Rain    
Averages and records for this station are not official NWS values.
T = Trace of Precipitation, MM = Missing Value Source: NWS Daily Summary

Daily Weather History Graph

Daily Weather History Graph

Search for Another Location

Airport or City:

Trip Planner

Search our weather history database for the weather conditions in past years. The results will help you decide how hot, cold, wet, or windy it might be!

Date:

Astronomy

Aug. 14, 2013 Rise Set
Actual Time 6:58 AM EDT 8:04 PM EDT
Civil Twilight 6:34 AM EDT 8:28 PM EDT
Nautical Twilight 6:05 AM EDT 8:57 PM EDT
Astronomical Twilight 5:36 AM EDT 9:26 PM EDT
Moon 2:08 PM EDT (8/14) 12:24 AM EDT (8/14)
Length of Visible Light 13h 54m
Length of Day
13h 05m
First Quarter, 52% of the Moon is Illuminated
Aug 14
First Quarter
Aug 20
Full
Aug 28
Last Quarter
Sep 5
New
Sep 12
First Quarter

Hourly Weather History & Observations

Time (EDT) Temp. Heat Index Dew Point Humidity Pressure Visibility Wind Dir Wind Speed Gust Speed Precip Events Conditions
12:53 AM 77.0 °F - 73.9 °F 90% 30.01 in 10.0 mi SSE 5.8 mph - N/A   Clear
1:53 AM 75.9 °F - 75.0 °F 97% 29.99 in 10.0 mi East 3.5 mph - N/A   Clear
2:53 AM 75.9 °F - 75.0 °F 97% 30.00 in 10.0 mi ESE 3.5 mph - N/A   Partly Cloudy
3:53 AM 75.9 °F - 75.0 °F 97% 29.98 in 10.0 mi Calm Calm - N/A   Clear
4:53 AM 75.9 °F - 75.0 °F 97% 29.97 in 10.0 mi ENE 3.5 mph - N/A   Clear
5:53 AM 75.0 °F - 73.9 °F 96% 29.97 in 10.0 mi Calm Calm - N/A   Clear
6:53 AM 75.0 °F - 75.0 °F 100% 29.98 in 10.0 mi Calm Calm - N/A   Clear
7:53 AM 75.9 °F - 75.0 °F 97% 29.99 in 10.0 mi SSE 5.8 mph - N/A   Clear
8:53 AM 79.0 °F - 73.9 °F 84% 29.99 in 10.0 mi SE 3.5 mph - N/A   Clear
9:53 AM 82.9 °F 89.4 °F 73.9 °F 74% 29.99 in 10.0 mi SSE 9.2 mph - N/A   Clear
10:53 AM 84.9 °F 92.1 °F 73.9 °F 69% 29.99 in 10.0 mi Variable 4.6 mph - N/A   Clear
11:53 AM 87.1 °F 93.6 °F 72.0 °F 61% 29.99 in 10.0 mi SSE 5.8 mph - N/A   Unknown
12:53 PM 88.0 °F 93.8 °F 71.1 °F 57% 29.99 in 10.0 mi SSE 5.8 mph - N/A   Scattered Clouds
1:53 PM 89.1 °F 95.0 °F 71.1 °F 55% 29.97 in 10.0 mi South 5.8 mph - N/A   Scattered Clouds
2:53 PM 89.1 °F 93.7 °F 69.1 °F 52% 29.96 in 10.0 mi Calm Calm - N/A   Partly Cloudy
3:53 PM 88.0 °F 93.8 °F 71.1 °F 57% 29.93 in 10.0 mi Variable 3.5 mph - N/A   Overcast
4:53 PM 89.1 °F 96.0 °F 72.0 °F 57% 29.92 in 10.0 mi WSW 11.5 mph - N/A   Scattered Clouds
5:53 PM 87.1 °F 93.6 °F 72.0 °F 61% 29.93 in 10.0 mi WSW 10.4 mph - N/A   Clear
6:53 PM 86.0 °F 92.2 °F 72.0 °F 63% 29.94 in 10.0 mi SW 10.4 mph - N/A   Partly Cloudy
7:53 PM 82.0 °F 86.3 °F 71.1 °F 69% 29.95 in 10.0 mi WSW 6.9 mph - N/A   Clear
8:34 PM 82.4 °F 87.2 °F 71.6 °F 70% 29.97 in 10.0 mi SW 4.6 mph - N/A   Partly Cloudy
8:53 PM 81.0 °F 85.8 °F 73.0 °F 77% 29.97 in 10.0 mi SSW 6.9 mph - N/A   Partly Cloudy
9:53 PM 80.1 °F 84.2 °F 73.0 °F 79% 29.99 in 10.0 mi ESE 4.6 mph - N/A   Scattered Clouds
10:53 PM 79.0 °F - 72.0 °F 79% 30.02 in 10.0 mi SE 5.8 mph - N/A   Partly Cloudy
11:53 PM 75.9 °F - 73.0 °F 91% 30.02 in 9.0 mi SW 8.1 mph - 0.03 in Rain Light Rain